Flag for British Virgin Islands Weather past 2 weeks in Road Town, Tortola, British Virgin Islands

78 °F


Feels Like: 81 °F
Forecast: 78 / 82 °F
Wind: 10 mph from Northeast

Location: Cyril E. King International Airport

Current Time: Nov 29, 2015 at 3:05:32 AM

Latest Report: Nov 29, 2015 at 1:53 AM

Visibility: 10 mi

Pressure: 29.90 "Hg

Humidity: 87%

Dew point: 74 °F

Location of Road TownLocation

Historic Weather in Road Town — Graph


Road Town temperature yesterday

Maximum temperature yesterday: 81 °F (at 1:53 AM)
Minimum temperature yesterday: 75 °F (at 4:53 PM)
Average temperature yesterday: 77 °F

Past Weeks' High & Low Weather Summary

High87 °F (Nov 16, 9:53 AM)100% (Nov 28, 4:44 AM)30.07 "Hg (Nov 28, 4:44 AM)
Low73 °F (Nov 22, 12:53 AM)48% (Nov 20, 10:53 AM)29.85 "Hg (Nov 20, 2:53 PM)
Average80 °F80%29.94 "Hg
* Reported Nov 14 12:53 AM — Nov 29 12:53 AM, Road Town, Weather by CustomWeather, © 2015

Note: Actual official high and low records may vary slightly from our data, if they occured in-between our weather recording intervals... More about our weather records


Road Town weather history for previous 24 hours

Time TempWeatherWind HumidityBarometerVisibility
12:53 AM
Sun, Nov 29
76 °FClear.8 mph91%29.92 "Hg10 mi
11:53 PM
Sat, Nov 28
76 °FLight rain. Partly cloudy.15 mph91%29.95 "Hg10 mi
11:13 PM76 °FLight rain. Partly cloudy.16 mph94%29.95 "Hg10 mi
10:53 PM75 °FLight rain. Overcast.17 mph96%29.96 "Hg10 mi
10:28 PM75 °FHeavy rain. Fog.14 mph100%29.97 "Hg3 mi
10:11 PM75 °FHeavy rain. Fog.15 mph100%29.97 "Hg2 mi
9:53 PM76 °FRain. Fog.14 mph97%29.96 "Hg3 mi
9:26 PM75 °FHeavy rain. Fog.12 mph100%29.96 "Hg1 mi
9:01 PM75 °FHeavy rain. Fog.6 mph100%29.96 "Hg3 mi
8:38 PM76 °FRain. Mostly cloudy.20 mph94%29.93 "Hg8 mi
7:53 PM76 °FRain. Fog.12 mph97%29.93 "Hg5 mi
7:21 PM75 °FRain. Fog.14 mph100%29.92 "Hg3 mi
6:53 PM77 °FLight rain. Overcast.3 mph88%29.92 "Hg8 mi
6:15 PM75 °FLight rain. Mostly cloudy.15 mph96%29.91 "Hg7 mi
5:53 PM75 °FLight rain. Mostly cloudy.12 mph100%29.91 "Hg7 mi
4:53 PM75 °FLight rain. Mostly cloudy.7 mph96%29.90 "Hg10 mi
4:12 PM76 °FLight rain. Mostly cloudy.7 mph97%29.89 "Hg10 mi
4:05 PM76 °FHeavy rain. Fog.3 mph97%29.89 "Hg3 mi
3:53 PM76 °FLight rain. Cloudy.5 mph97%29.89 "Hg10 mi
2:53 PM78 °FMostly cloudy.3 mph90%29.89 "Hg10 mi
1:53 PM80 °FCloudy.No wind79%29.90 "Hg10 mi
12:53 PM78 °FBroken clouds.7 mph87%29.92 "Hg10 mi
11:53 AM79 °FLight rain. Mostly cloudy.13 mph88%29.95 "Hg10 mi
11:11 AM80 °FBroken clouds.12 mph87%29.97 "Hg10 mi
10:53 AM80 °FMostly cloudy.12 mph87%29.96 "Hg10 mi
9:53 AM79 °FMostly cloudy.5 mph90%29.96 "Hg10 mi
8:53 AM77 °FOvercast.7 mph96%29.95 "Hg10 mi
8:23 AM76 °FCloudy.8 mph94%29.94 "Hg8 mi
8:15 AM78 °FLight rain. Mostly cloudy.10 mph84%29.95 "Hg2 mi
7:55 AM77 °FHeavy rain. Fog.8 mph100%29.94 "Hg1 mi
6:53 AM76 °FMild.No wind97%29.90 "Hg10 mi
6:00 AM77 °FLight rain. Partly cloudy.3 mph96%29.89 "Hg10 mi
5:21 AM76 °FPartly cloudy.3 mph97%29.88 "Hg10 mi
4:59 AM77 °FHeavy rain. Fog.5 mph94%29.89 "Hg1 mi
4:44 AM77 °FHeavy rain. Fog.No wind100%29.88 "Hg2 mi
4:36 AM79 °FHeavy rain. Fog.5 mph89%29.88 "Hg2 mi
3:53 AM78 °FPassing clouds.3 mph87%29.88 "Hg10 mi
Weather by CustomWeather, © 2015

See weather overviewHow to use our weather pages